Stations météo

réclame
Mon MeteoGroup
Åsele, Suède (2254): Température de l'air & dewpoint: 11.01.2018 08:00:00 - 17.01.2018 08:00:00 (CET)Åsele, Suède (2254): Vitesse du vent & gusts: 11.01.2018 08:00:00 - 17.01.2018 08:00:00 (CET)Åsele, Suède (2254): Direction du vent: 11.01.2018 08:00:00 - 17.01.2018 08:00:00 (CET)Åsele, Suède (2254): reduced air pressure: 11.01.2018 08:00:00 - 17.01.2018 08:00:00 (CET)Åsele, Suède (2254): visibility: 11.01.2018 08:00:00 - 17.01.2018 08:00:00 (CET)Åsele, Suède (2254): Quantités de précipitations: 11.01.2018 08:00:00 - 17.01.2018 08:00:00 (CET)
Date & Time tt [°C] td [°C] ff [km/h] ff [knt] fx [km/h] fx [knt] dd ppp [hPa] vv [km] rr [mm]
17.01.2018 08:00:00 - - - - - - - - - -
17.01.2018 07:00:00 -6,3 -7,8 16 9 42 23 ESE 995,8 4,8 0,0
17.01.2018 06:00:00 -5,7 -6,9 17 9 39 21 ESE 994,9 4,2 0,1
17.01.2018 05:00:00 -5,1 -6,3 16 9 37 20 ESE 994,6 5 0,0
17.01.2018 04:00:00 -4,8 -6,3 13 7 29 16 ESE 993,9 2,5 0,2
17.01.2018 03:00:00 -4,5 -6,3 15 8 37 20 ESE 993,5 4,5 0,0
17.01.2018 02:00:00 -4,3 -6,3 18 10 36 19 ESE 993,0 4,5 0,0
17.01.2018 01:00:00 -4,4 -5,9 18 10 35 19 ESE 992,6 3,1 0,2
17.01.2018 00:00:00 -4,7 -6,2 19 11 35 19 ESE 992,6 1,8 0,2
16.01.2018 23:00:00 -4,4 -6,4 13 7 35 19 ESE 992,3 7 0,1
16.01.2018 22:00:00 -4,7 -6,2 14 7 35 19 ESE 991,8 4,1 0,0
16.01.2018 21:00:00 -5,2 -6,7 20 11 42 23 ESE 991,9 3,4 0,1
16.01.2018 20:00:00 -5,0 -7,0 17 9 34 19 ESE 992,0 - 0,1
16.01.2018 19:00:00 -4,8 -6,3 21 11 48 26 ESE 992,0 2,6 0,1
16.01.2018 18:00:00 -3,9 -5,6 21 11 48 26 ESE 991,4 2,3 0,2
16.01.2018 17:00:00 -3,8 -5,5 19 10 47 25 ESE 991,3 2,3 0,1
16.01.2018 16:00:00 -3,7 -5,5 21 12 41 22 ESE 991,6 6 0,0
16.01.2018 15:00:00 -3,6 -5,4 17 9 34 18 ESE 992,1 6 0,0
16.01.2018 14:00:00 -3,4 -5,6 21 11 42 23 ESE 992,3 3,2 0,1
16.01.2018 13:00:00 -2,9 -4,8 13 7 34 19 SE 992,6 8 0,1
16.01.2018 12:00:00 -3,4 -4,8 19 11 53 29 SE 993,4 3,3 0,1
16.01.2018 11:00:00 -3,4 -5,0 19 10 44 24 SE 993,7 4,7 0,0
16.01.2018 10:00:00 -3,4 -4,7 17 9 51 28 SE 994,2 3,4 0,3
16.01.2018 09:00:00 -3,2 -4,5 19 10 50 27 SE 994,3 1,7 0,0
16.01.2018 08:00:00 -2,8 -4,4 16 8 49 26 SE 994,0 3,5 0,2
16.01.2018 07:00:00 -2,7 -4,3 17 9 45 25 SE 994,1 3,1 0,1
16.01.2018 06:00:00 -2,6 -4,2 17 9 45 24 SE 994,7 4,5 0,1
16.01.2018 05:00:00 -2,7 -4,0 14 8 41 22 SE 995,4 2,7 0,7
16.01.2018 04:00:00 -2,9 -4,3 17 9 42 23 SE 996,4 1,8 0,4
16.01.2018 03:00:00 -2,9 -5,5 16 9 44 24 SSE 997,7 14 0,0
16.01.2018 02:00:00 -3,4 -5,9 18 10 49 26 SSE 998,8 11 0,0
16.01.2018 01:00:00 -3,6 -5,8 14 8 41 22 SSE 999,8 11 0,0
16.01.2018 00:00:00 -3,5 -5,8 13 7 49 26 SE 1000,4 14 0,0
15.01.2018 23:00:00 -3,4 -5,9 17 9 42 23 SSE 1001,3 9 0,0
15.01.2018 22:00:00 -3,5 -6,0 15 8 39 21 SSE 1002,3 14 0,0
15.01.2018 21:00:00 -4,0 -6,0 13 7 40 22 SSE 1003,4 11 0,0
15.01.2018 20:00:00 -4,2 -6,2 12 7 42 23 SSE 1004,4 14 0,0
15.01.2018 19:00:00 -4,3 -6,3 15 8 42 23 SSE 1005,5 15 0,0
15.01.2018 18:00:00 -4,2 -6,8 14 8 40 21 SSE 1006,5 17 0,0
15.01.2018 17:00:00 -4,0 -6,9 13 7 43 23 SSE 1007,0 14 0,0
15.01.2018 16:00:00 -3,9 -6,7 15 8 37 20 S 1008,2 18 0,0
15.01.2018 15:00:00 -4,1 -6,4 14 7 39 21 SSE 1008,7 14 0,0
15.01.2018 14:00:00 -4,3 -6,8 14 8 41 22 S 1009,7 12 0,0
15.01.2018 13:00:00 -4,7 -7,3 14 8 41 22 S 1010,7 13 0,0
15.01.2018 12:00:00 -5,1 -7,7 14 8 37 20 S 1012,1 9 0,0
15.01.2018 11:00:00 -5,5 -7,9 14 7 38 20 S 1012,9 8 0,0
15.01.2018 10:00:00 -5,9 -8,6 14 8 45 24 S 1013,9 9 0,0
15.01.2018 09:00:00 -6,2 -9,1 13 7 32 18 S 1014,4 31 0,0
15.01.2018 08:00:00 -6,4 -9,0 12 7 32 17 SSE 1015,0 22 0,0
15.01.2018 07:00:00 -6,2 -9,1 16 8 41 22 S 1015,2 16 0,0
15.01.2018 06:00:00 -6,0 -8,6 12 6 42 23 SSE 1015,7 26 0,0
15.01.2018 05:00:00 -5,9 -8,3 13 7 35 19 S 1016,5 30 0,0
15.01.2018 04:00:00 -5,9 -8,5 13 7 43 23 S 1017,4 21 0,0
15.01.2018 03:00:00 -6,1 -8,8 13 7 35 19 S 1018,5 10 0,0
15.01.2018 02:00:00 -6,4 -9,0 9 5 39 21 S 1019,6 12 0,0
15.01.2018 01:00:00 -6,5 -8,6 14 7 46 25 SSW 1020,5 10 0,0
15.01.2018 00:00:00 -6,7 -8,5 14 7 39 21 S 1020,8 14 0,0
14.01.2018 23:00:00 -6,7 -8,5 10 6 37 20 S 1021,5 31 0,0
14.01.2018 22:00:00 -6,8 -8,6 12 7 33 18 S 1021,8 19 0,0
14.01.2018 21:00:00 -7,0 -8,6 11 6 35 19 S 1022,5 26 0,0
14.01.2018 20:00:00 -7,2 -8,4 10 6 34 19 SSE 1023,1 16 0,0
14.01.2018 19:00:00 -7,2 -8,1 7 4 34 19 SSE 1023,9 13 0,0
14.01.2018 18:00:00 -7,2 -8,1 10 6 32 18 S 1025,0 21 0,0
14.01.2018 17:00:00 -7,3 -8,2 14 8 30 16 S 1025,5 13 0,0
14.01.2018 16:00:00 -7,2 -8,0 7 4 28 15 S 1026,4 21 0,0
14.01.2018 15:00:00 -7,3 -8,1 7 4 29 16 S 1027,2 18 0,0
14.01.2018 14:00:00 -7,4 -8,2 10 6 27 15 S 1028,0 17 0,0
14.01.2018 13:00:00 -7,4 -8,2 10 5 22 12 SSW 1028,6 19 0,0
14.01.2018 12:00:00 -7,5 -8,3 9 5 26 14 S 1029,2 26 0,0
14.01.2018 11:00:00 -7,7 -8,5 10 5 24 13 SSW 1030,1 21 0,0
14.01.2018 10:00:00 -8,2 -9,1 6 3 23 12 S 1030,4 33 0,0
14.01.2018 09:00:00 -8,5 -9,4 7 4 22 12 SSW 1030,7 18 0,0
14.01.2018 08:00:00 -8,7 -9,6 8 5 20 11 SSW 1031,1 9 0,0
14.01.2018 07:00:00 -9,3 -10,4 4 2 11 6 SSW 1031,4 7 0,1
14.01.2018 06:00:00 -10,2 -11,2 3 2 9 5 S 1032,0 27 0,0
14.01.2018 05:00:00 -12,4 -13,7 0 0 3 2 N 1032,8 7 0,0
14.01.2018 04:00:00 -17,5 -19,3 0 0 1 1 N 1034,1 14 0,0
14.01.2018 03:00:00 -19,5 -21,5 0 0 1 0 N 1034,9 11 0,0
14.01.2018 02:00:00 -21,4 -23,5 0 0 1 1 N 1035,2 36 0,0
14.01.2018 01:00:00 -22,8 -25,0 0 0 0 0 N 1035,9 15 0,0
14.01.2018 00:00:00 -24,6 -27,1 0 0 0 0 N 1036,5 15 0,1
13.01.2018 23:00:00 -27,2 -29,7 0 0 0 0 N 1036,6 35 0,0
13.01.2018 22:00:00 -27,8 -30,4 0 0 0 0 N 1037,1 32 0,0
13.01.2018 21:00:00 -27,4 -30,1 0 0 0 0 N 1037,3 25 0,0
13.01.2018 20:00:00 -26,9 -29,6 0 0 0 0 N 1037,9 26 0,0
13.01.2018 19:00:00 -26,3 -28,8 0 0 0 0 N 1037,6 28 0,0
13.01.2018 18:00:00 -25,9 -28,5 0 0 0 0 N 1037,7 43 0,0
13.01.2018 17:00:00 -25,1 -27,7 0 0 0 0 N 1037,9 47 0,0
13.01.2018 16:00:00 -24,4 -26,9 0 0 0 0 N 1037,9 31 0,0
13.01.2018 15:00:00 -23,1 -25,4 0 0 0 0 N 1037,8 25 0,0
13.01.2018 14:00:00 -22,0 -24,2 0 0 0 0 N 1037,9 23 0,0
13.01.2018 13:00:00 -21,3 -23,5 0 0 1 0 N 1038,1 25 0,0
13.01.2018 12:00:00 -21,2 -23,3 0 0 1 0 N 1038,2 17 0,0
13.01.2018 11:00:00 -21,6 -23,8 0 0 0 0 N 1038,6 9 0,0
13.01.2018 10:00:00 -21,3 -23,4 0 0 0 0 N 1038,6 - 0,0
13.01.2018 09:00:00 -21,4 -23,5 0 0 0 0 N 1038,7 16 0,0
13.01.2018 08:00:00 -21,0 -23,1 0 0 0 0 N 1038,8 - 0,0
13.01.2018 07:00:00 -20,4 -22,5 0 0 0 0 N 1038,8 30 0,0
13.01.2018 06:00:00 -19,2 -21,2 0 0 0 0 N 1038,7 2,7 0,0
13.01.2018 05:00:00 -18,3 -20,2 0 0 1 0 N 1038,8 - 0,0
13.01.2018 04:00:00 -18,3 -20,2 0 0 1 1 N 1039,0 - 0,0
13.01.2018 03:00:00 -18,5 -20,4 0 0 1 1 N 1039,3 12 0,0
13.01.2018 02:00:00 -18,4 -20,3 0 0 0 0 N 1039,5 17 0,0
13.01.2018 01:00:00 -18,4 -20,3 0 0 1 1 N 1039,5 - 0,0
13.01.2018 00:00:00 -18,8 -20,7 0 0 1 1 N 1039,8 24 0,0
12.01.2018 23:00:00 -18,8 -20,7 0 0 1 1 N 1039,8 - 0,0
12.01.2018 22:00:00 -19,4 -21,3 0 0 1 1 N 1039,4 - 0,0
12.01.2018 21:00:00 -21,2 -23,3 0 0 1 1 N 1039,5 50 0,0
12.01.2018 20:00:00 -21,4 -23,6 0 0 1 1 N 1039,6 50 0,0
12.01.2018 19:00:00 -21,7 -23,9 0 0 0 0 N 1039,3 50 0,0
12.01.2018 18:00:00 -21,5 -23,6 0 0 0 0 N 1039,2 50 0,0
12.01.2018 17:00:00 -20,6 -22,7 0 0 1 0 N 1039,2 41 0,0
12.01.2018 16:00:00 -18,8 -20,8 0 0 0 0 N 1038,9 44 0,0
12.01.2018 15:00:00 -17,8 -19,7 0 0 1 0 N 1038,8 45 0,0
12.01.2018 14:00:00 -18,5 -20,4 0 0 1 1 N 1038,8 50 0,0
12.01.2018 13:00:00 -19,6 -21,6 0 0 1 0 N 1038,5 47 0,0
12.01.2018 12:00:00 -21,7 -23,9 0 0 1 1 N 1038,6 36 0,0
12.01.2018 11:00:00 -22,6 -25,0 0 0 1 1 N 1038,1 39 0,0
12.01.2018 10:00:00 -23,2 -25,6 0 0 1 1 N 1038,0 50 0,0
12.01.2018 09:00:00 -24,4 -26,9 0 0 1 1 N 1037,9 50 0,0
12.01.2018 08:00:00 -25,4 -28,0 0 0 1 0 N 1037,5 50 0,0
12.01.2018 07:00:00 -25,9 -28,5 0 0 1 1 N 1037,1 50 0,0
12.01.2018 06:00:00 -26,8 -29,5 0 0 1 1 N 1037,0 50 0,0
12.01.2018 05:00:00 -27,0 -29,7 0 0 1 1 N 1036,7 50 0,0
12.01.2018 04:00:00 -27,3 -30,0 0 0 1 0 N 1036,4 50 0,0
12.01.2018 03:00:00 -28,1 -30,9 0 0 1 1 N 1036,1 50 0,0
12.01.2018 02:00:00 -28,5 -31,3 0 0 1 1 N 1035,7 50 0,0
12.01.2018 01:00:00 -29,2 -32,1 0 0 1 1 N 1035,5 21 0,0
12.01.2018 00:00:00 -29,2 -32,1 0 0 1 0 N 1035,1 50 0,0
11.01.2018 23:00:00 -29,0 -31,8 0 0 1 0 N 1034,6 45 0,0
11.01.2018 22:00:00 -29,4 -32,3 0 0 0 0 N 1034,5 50 0,0
11.01.2018 21:00:00 -29,5 -32,4 0 0 0 0 N 1034,3 50 0,0
11.01.2018 20:00:00 -29,3 -32,2 0 0 0 0 N 1033,8 47 0,0
11.01.2018 19:00:00 -29,0 -31,8 0 0 0 0 N 1033,4 43 0,0
11.01.2018 18:00:00 -28,9 -31,7 0 0 0 0 N 1033,1 32 0,0
11.01.2018 17:00:00 -28,3 -31,1 0 0 0 0 N 1032,9 33 0,0
11.01.2018 16:00:00 -27,6 -30,3 0 0 0 0 N 1032,6 30 0,0
11.01.2018 15:00:00 -26,5 -29,0 0 0 1 0 N 1032,3 19 0,0
11.01.2018 14:00:00 -26,0 -28,6 0 0 1 1 N 1031,5 28 0,0
11.01.2018 13:00:00 -25,6 -28,2 0 0 0 0 N 1031,0 24 0,0
11.01.2018 12:00:00 -26,1 -28,7 0 0 0 0 N 1030,8 23 0,0
11.01.2018 11:00:00 -26,9 -29,6 0 0 0 0 N 1031,0 38 0,0
11.01.2018 10:00:00 -27,9 -30,5 0 0 0 0 N 1030,7 42 0,0
11.01.2018 09:00:00 -28,1 -30,9 0 0 0 0 N 1030,3 31 0,0
11.01.2018 08:00:00 -27,8 -30,4 0 0 0 0 N 1029,7 26 0,0

tt = Température de l'air
td = dewpoint
ff = Vitesse du vent
fx = gusts
dd = Direction du vent
ppp = reduced air pressure
vv = visibility
rr = Quantités de précipitations

stations d'obs. à proximité